{"data":{"norad_id":52196,"epoch":"2026-09-20T06:58:51.977568Z","epoch_age_seconds":138915,"freshness":"FRESH","line1":"1 52196U 22034B   26263.29087937  .00017912  00000+0  32398-3 0  9995","line2":"2 52196  52.9806 160.9304 0003764 176.7990 183.3042 15.49774485251695","mean_motion":15.49774485,"eccentricity":0.0003764,"inclination_deg":52.9806,"raan_deg":160.9304,"arg_perigee_deg":176.799,"mean_anomaly_deg":183.3042,"bstar":0.00032398,"rev_number":25169,"period_min":92.916744593327,"perigee_km":414.82738706458,"apogee_km":419.94305619302,"semimajor_km":6795.5222216288,"source":"CELESTRAK","updated_at":"2026-09-21T09:00:08.493645Z"}}